Regional Weather Roundup
Issued by NWS Wilmington, NC

Home | Current Version | Previous Version | Text Only | Print | Product List | Glossary On
Versions: 1 2 3 4 5 6 7 8 9 10 11 12 13 14 15 16 17 18 19 20 21 22 23 24 25 26 27 28 29 30 31 32 33 34 35 36 37 38 39 40 41 42 43 44 45 46 47 48 49 50
000
ASUS42 KILM 261210
RWRILM
RWRILM
REGIONAL HOURLY WEATHER ROUNDUP
NATIONAL WEATHER SERVICE WILMINGTON NC
800 AM EDT SAT JUL 26 2014

NOTE: "FAIR" INDICATES FEW OR NO CLOUDS BELOW 12,000 FEET WITH NO
SIGNIFICANT WEATHER AND/OR OBSTRUCTIONS TO VISIBILITY.

...............WFO WILMINGTON COUNTY WARNING AREA...............

......COASTAL NC AND SC COUNTIES......

CITY           SKY/WX    TMP DP  RH WIND       PRES   REMARKS
WILMINGTON     PTSUNNY   76  74  93 CALM      30.02R
SOUTHPORT      SUNNY     76  73  87 W5        30.02R
N MYRTLE BEACH SUNNY     77  72  84 VRB3      30.02R
MYRTLE BEACH   PTSUNNY   75  72  88 CALM      30.03R

......INLAND NC AND SC COUNTIES.......

CITY           SKY/WX    TMP DP  RH WIND       PRES   REMARKS
LUMBERTON      CLOUDY    76  73  91 S3        30.02R FOG
ELIZABETHTOWN  FOG       73  73 100 CALM      30.02S VSB<1/4
WHITEVILLE     SUNNY     74  73  95 CALM      30.02S
FLORENCE       CLOUDY    72  71  97 CALM      30.03R FOG
DARLINGTON     CLOUDY    72  70  94 CALM      30.05R VSB 1/4

....................REST OF NORTH CAROLINA......................

.........EASTERN NC.........

CITY           SKY/WX    TMP DP  RH WIND       PRES   REMARKS
CAPE HATTERAS  MOSUNNY   79  74  84 E5        30.03R
JACKSONVILLE   MOSUNNY   73  72  94 N3        30.02S
MOREHEAD CITY  CLOUDY    78  75  90 CALM      30.02R
KENANSVILLE    MOSUNNY   73  71  95 N3        30.03S FOG
NEW BERN       PTSUNNY   77  73  87 CALM      30.03S
ELIZABETH CITY PTSUNNY   76  68  76 CALM      30.04R

.........CENTRAL NC.........

CITY           SKY/WX    TMP DP  RH WIND       PRES   REMARKS
RALEIGH DURHAM FOG       73  72  94 CALM      30.04S VSB 1/4
ROCKY MOUNT    CLOUDY    72  70  93 CALM      30.04R FOG
ROANOKE RAPIDS NOT AVBL
FAYETTEVILLE   FOG       74  73  97 N5        30.02R VSB 1/4
HOFFMAN        PTSUNNY   73  72  94 E2        30.04S FOG

.........WESTERN NC.........

CITY           SKY/WX    TMP DP  RH WIND       PRES   REMARKS
CHARLOTTE      MOSUNNY   71  71 100 CALM      30.04R FOG
GREENSBORO     CLOUDY    72  71  97 W3        30.04S FOG
HICKORY        NOT AVBL
BOONE          NOT AVBL
ASHEVILLE      NOT AVBL

.....................REST OF SOUTH CAROLINA.....................

.........EASTERN SC.........

CITY           SKY/WX    TMP DP  RH WIND       PRES   REMARKS
CHARLESTON     PTSUNNY   77  73  87 CALM      30.03R
BEAUFORT MCAS  SUNNY     78  75  90 W8        30.03R
HILTON HEAD    NOT AVBL

.........CENTRAL SC.........

CITY           SKY/WX    TMP DP  RH WIND       PRES   REMARKS
COLUMBIA       PTSUNNY   75  70  84 CALM      30.03R HAZE
ORANGEBURG     CLOUDY    73  71  93 CALM      30.03S FOG
SUMTER SHAW    PTSUNNY   73  73 100 W2        30.02R

.........WESTERN SC.........

CITY           SKY/WX    TMP DP  RH WIND       PRES   REMARKS
GREENVILLE     NOT AVBL
ROCK HILL      FOG       70  70 100 S5        30.05R VSB<1/4
ANDERSON       SUNNY     72  70  93 CALM      30.04R
CLEMSON        NOT AVBL
GREENWOOD      SUNNY     72  69  90 CALM      30.05R FOG


...................COASTAL AND OFFSHORE REPORTS..................

................LOCAL PIERS AND NC RESERVE................


STATION/POSITION TIME  SKY/WX   TEMP    WIND        PRES    VSBY
                                AIR SEA DIR/SP/G
                 (UTC)          (F)     (DEG/KT/KT) (MB)    (MI)
JOHNY MRCER PIER 1200            77 83  330/  3/  3 1015.9S
NC RESRV MASNBRO 1100            75        CALM     1016.0S
OCEAN CREST PIER 1200            78 83  320/  6/  8 1015.7R
SPRINGMAID  PIER 1200            75 83  270/  4/  5 1016.7R


................COASTAL AND OFFSHORE BUOYS................


STATION/POSITION TIME  SKY/WX   TEMP    WIND        PRES    VSBY
                                AIR SEA DIR/SP/G
                 (UTC)          (F)     (DEG/KT/KT) (MB)    (MI)
DIMNDSHOAL 41025 1200                   VRB  4/  6  1016.5R
WVE H/P(F/S)=  2/ 6 WND WVE H/P(F/S)=  2/ 4 SWL H/P/D(F/S/D)=  2/120/ 6

CAPE LOOKOUT     1100            79     210/  1/  1 1015.9R
ONSLOW BAY 41036 1200            80 81  250/  4/  4 1016.7R
WVE H/P(F/S)=  2/ 6 WND WVE H/P(F/S)=  2/ 4 SWL H/P/D(F/S/D)=  2/180/ 6

5 WRITEBCH 41038 1100            76 81  330/  4/  6   N/A
MASONBORO  41110 1200               81                N/A
WVE H/P(F/S)=  2/ 6 WND WVE H/P(F/S)=  2/ 6

WILM HARBR 41108 NOT AVBL
27WRITEBCH 41037 1100            77 81  250/  4/  6 1015.9R
FRYING PAN 41013 NOT AVBL
SUNST NRSH 41024 1100            79     280/  8/ 10 1015.9R
CAPRS NRSH 41029 1100            81     270/  8/ 10   N/A
EDISTO     41004 1200            82 82  230/ 12/ 14 1015.7R
WVE H/P(F/S)=  3/ 5 WND WVE H/P(F/S)=  2/ 5 SWL H/P/D(F/S/D)=  2/ 7



..........OFFSHORE BUOYS BEYOND 100 NM OFFSHORE...........
.....IN A TRIANGLE---HAT TO BERMUDA TO BAHAMAS TO HAT.....


STATION/POSITION TIME  SKY/WX   TEMP    WIND        PRES    VSBY
                                AIR SEA DIR/SP/G
                 (UTC)          (F)     (DEG/KT/KT) (MB)    (MI)
150E HAT   41001 NOT AVBL
W BERMUDA  41048 1110            82 82  250/ 12/ 14 1019.1R
WVE H/P(F/S)=  4/ 6 WND WVE H/P(F/S)=  3/ 5 SWL H/P/D(F/S/D)=  3/250/ 6

ATLANTIC S 41049 1053            82 83  130/  6/ 10 1022.0
WVE H/P(F/S)=  4/ 8 WND WVE H/P(F/S)=  2/ 4 SWL H/P/D(F/S/D)=  3/100/ 8

E BAHAMAS  41046 1125            83 84  110/ 12/ 14 1019.9R
WVE H/P(F/S)=  5/ 9 WND WVE H/P(F/S)=  3/ 5 SWL H/P/D(F/S/D)=  3/120/ 9

NE BAHAMAS 41047 1139            83 84  180/  8/  8 1020.8R
WVE H/P(F/S)=  3/ 8 SWL H/P/D(F/S/D)=  3/140/ 8

120E CANVRL41010 1200            83 84  200/ 10/ 10 1018.6S
WVE H/P(F/S)=  2/ 8 WND WVE H/P(F/S)=  2/ 4 SWL H/P/D(F/S/D)=  2/130/ 8


END


USA.gov is the U.S. government's official web portal to all federal, state and local government web resources and services.